Location: Ferchesar
(52.6477°N, 12.4298°E)
Time: 08:50:08
(UTC+01:00)

Tiros 1 - Pass Details

Date: 04 December 2021
Orbit: 629 x 664 km, 48.4° (Epoch: 25 January)

Event Time Altitude Azimuth Distance (km) Brightness Sun altitude
Rises 00:28:00 0° 276° (W) 2,960 - -59.1°
Reaches altitude 10° 00:30:48 10° 261° (W) 2,053 - -59.0°
Maximum altitude 00:34:18 21° 213° (SSW) 1,465 - -58.9°
Drops below altitude 10° 00:37:51 10° 164° (SSE) 2,062 - -58.7°
Sets 00:40:39 0° 149° (SSE) 2,976 - -58.6°
